Location: Brunsen
(51.8651°N, 9.8610°E)
Time: 20:17:45
(UTC+00:00)

CZ-2C R/B - Pass Details

Date: 13 August 2024
Orbit: 782 x 869 km, 98.3° (Epoch: 07 September)

Event Time Altitude Azimuth Distance (km) Brightness Sun altitude
Exits shadow 23:32:43 10° 108° (ESE) 2,511 5.0 -23.8°
Reaches altitude 10° 23:32:52 10° 107° (ESE) 2,470 5.0 -23.8°
Maximum altitude 23:37:03 23° 57° (ENE) 1,704 4.6 -23.8°
Drops below altitude 10° 23:41:13 10° 6° (N) 2,437 6.2 -23.8°
Sets 23:43:58 0° 353° (N) 3,359 7.2 -23.7°
